Powrót do katalogu

ELEKTRON 3 DEB

AktywnyHEO
NORAD 29008·DEBRIS·🇷🇺 Russia

Wystrzelony Jul 10, 1964 z Baikonur Cosmodrome

Loading…

Następne Przeloty (najbliższe 24 godziny)

TLE

Starzejące sięSource: Space-Track

Epoka: Sep 3, 2026, 22:32 UTC

1 29008U 64038G   26246.93930326  .00000755  00000-0  18883-3 0  9993
2 29008  60.8350  27.5610 2866111  55.9981 328.1046  9.37977620739346

Śledź ELEKTRON 3 DEB w czasie rzeczywistym z AllMySat

Download on the App Store